EW5546 Weather Reports


time (UTC)temp
F
wind
direction
speed
knots
gust
knots
rain 1hr
in
rain 24hr
in
rain mn
in
humidity
%
barometer
mb
20260905003523 66 220 0.9 2.6 0.00 0.08 0.00 76 1003.9
20260905002524 66 205 1.7 1.7 0.00 0.08 0.00 76 1003.9
20260905001519 66 223 0.9 2.6 0.00 0.08 0.00 76 1003.9
20260905000525 66 222 0.9 1.7 0.00 0.08 0.00 76 1003.9
20260904235522 66 206 0.9 1.7 0.00 0.08 0.00 77 1003.9
20260904234524 66 232 0.9 1.7 0.00 0.08 0.00 77 1003.9
20260904233541 66 203 0.9 2.6 0.00 0.08 0.00 78 1003.9
20260904232522 66 218 0.9 1.7 0.00 0.08 0.00 78 1003.9
20260904231547 66 221 0.9 1.7 0.00 0.08 0.00 78 1003.9
20260904230558 66 212 0.9 1.7 0.00 0.08 0.00 77 1003.9
20260904225522 66 203 0.0 0.9 0.00 0.08 0.00 76 1003.9
20260904224522 66 213 0.0 1.7 0.00 0.08 0.00 76 1003.9
20260904223523 66 248 0.9 0.9 0.00 0.08 0.00 75 1002.9
20260904222524 65 252 0.9 0.9 0.00 0.08 0.00 75 1002.9
20260904221517 65 237 0.9 1.7 0.00 0.08 0.00 74 1002.9
20260904220516 65 203 0.0 0.9 0.00 0.08 0.00 74 1002.9
20260904215517 66 258 0.9 1.7 0.00 0.08 0.08 73 1003.8
20260904214523 66 203 0.9 1.7 0.00 0.08 0.08 73 1003.9
20260904214042 66 203 0.0 0.9 0.00 0.08 0.08 73 1003.1
20260904213023 66 218 1.7 2.6 0.00 0.08 0.08 73 1002.9
20260904212019 66 302 0.9 2.6 0.00 0.08 0.08 73 1002.9
20260904211104 66 237 1.7 3.5 0.00 0.08 0.08 72 1002.9
20260904210022 66 243 0.9 1.7 0.00 0.08 0.08 72 1002.9
20260904205022 67 248 0.0 1.7 0.00 0.08 0.08 72 1002.9
20260904204022 67 240 0.9 1.7 0.00 0.08 0.08 73 1002.9
20260904203043 67 220 0.9 1.7 0.00 0.08 0.08 72 1002.9
20260904202042 68 232 0.9 1.7 0.08 0.08 0.08 72 1002.9
20260904201117 69 216 1.7 2.6 0.08 0.08 0.08 72 1002.9
20260904200016 69 226 1.7 2.6 0.08 0.08 0.08 71 1002.9
20260904195018 70 268 1.7 2.6 0.08 0.08 0.08 67 1001.9
20260904194022 71 234 1.7 1.7 0.00 0.00 0.00 64 1001.9
20260904193024 71 239 1.7 2.6 0.00 0.00 0.00 60 1001.9
20260904192024 72 202 1.7 2.6 0.00 0.00 0.00 56 1001.9
20260904191024 72 190 3.5 5.2 0.00 0.00 0.00 56 1001.9
20260904190024 72 218 1.7 1.7 0.00 0.00 0.00 55 1001.9
20260904185042 72 232 1.7 2.6 0.00 0.00 0.00 55 1001.9
20260904184021 72 208 1.7 4.3 0.00 0.00 0.00 55 1001.9
20260904183022 71 224 0.9 1.7 0.00 0.00 0.00 55 1001.9
20260904182022 71 206 1.7 3.5 0.00 0.00 0.00 55 1001.9
20260904181022 71 230 1.7 1.7 0.00 0.00 0.00 55 1002.7
20260904180023 71 226 0.9 2.6 0.00 0.00 0.00 55 1002.9
20260904175017 71 212 0.9 1.7 0.00 0.00 0.00 55 1002.9
20260904174026 71 214 0.9 1.7 0.00 0.00 0.00 54 1002.9
20260904173024 71 175 1.7 1.7 0.00 0.00 0.00 54 1002.9
20260904172022 72 219 1.7 2.6 0.00 0.00 0.00 53 1002.9
20260904171016 72 243 0.9 1.7 0.00 0.00 0.00 52 1003.8
20260904170022 72 219 1.7 3.5 0.00 0.00 0.00 52 1003.9
20260904165042 72 233 1.7 2.6 0.00 0.00 0.00 51 1003.9
20260904164022 72 246 2.6 3.5 0.00 0.00 0.00 50 1003.9
20260904163022 72 238 1.7 2.6 0.00 0.00 0.00 50 1003.9
20260904162022 72 229 1.7 3.5 0.00 0.00 0.00 49 1004.9
20260904161024 72 222 1.7 2.6 0.00 0.00 0.00 49 1004.9
20260904160024 72 230 1.7 2.6 0.00 0.00 0.00 49 1004.9
20260904155026 72 174 1.7 2.6 0.00 0.00 0.00 49 1004.9
20260904154022 72 258 0.9 1.7 0.00 0.00 0.00 48 1004.9
20260904153024 72 218 0.9 2.6 0.00 0.00 0.00 48 1004.9
20260904152035 72 200 1.7 2.6 0.00 0.00 0.00 48 1004.9
20260904151102 72 231 0.9 1.7 0.00 0.00 0.00 48 1005.6
20260904145022 73 205 1.7 2.6 0.00 0.00 0.00 48 1005.9
20260904144022 73 193 0.9 1.7 0.00 0.00 0.00 48 1005.9
20260904143039 73 216 1.7 1.7 0.00 0.00 0.00 47 1005.9
20260904142022 73 223 1.7 2.6 0.00 0.00 0.00 47 1005.9
20260904141025 73 219 1.7 3.5 0.00 0.00 0.00 47 1006.6
20260904140022 73 212 1.7 3.5 0.00 0.00 0.00 47 1007.0
20260904135022 73 212 2.6 3.5 0.00 0.00 0.00 47 1007.0
20260904134022 73 214 2.6 3.5 0.00 0.00 0.00 47 1007.0
20260904133015 73 215 2.6 3.5 0.00 0.00 0.00 48 1007.0
20260904132022 73 216 0.9 2.6 0.00 0.00 0.00 47 1008.0
20260904131042 73 224 2.6 2.6 0.00 0.00 0.00 48 1008.0
20260904130017 73 203 1.7 1.7 0.00 0.00 0.00 48 1008.0
20260904125102 73 181 1.7 1.7 0.00 0.00 0.00 48 1008.0
20260904124022 72 241 1.7 2.6 0.00 0.00 0.00 48 1008.0
20260904123022 72 222 1.7 2.6 0.00 0.00 0.00 48 1008.0
20260904122042 72 228 1.7 2.6 0.00 0.00 0.00 48 1008.0
20260904121015 72 228 1.7 1.7 0.00 0.00 0.00 49 1008.0
20260904120018 72 225 0.9 1.7 0.00 0.00 0.00 49 1008.0
20260904115022 72 214 2.6 3.5 0.00 0.00 0.00 49 1009.0
20260904114022 72 199 1.7 1.7 0.00 0.00 0.00 49 1009.0
20260904113018 72 211 1.7 2.6 0.00 0.00 0.00 50 1009.0
20260904112044 73 222 1.7 2.6 0.00 0.00 0.00 49 1009.0
20260904111022 72 230 2.6 3.5 0.00 0.00 0.00 50 1009.0
20260904110026 73 226 1.7 2.6 0.00 0.00 0.00 52 1009.0
20260904105025 72 200 1.7 2.6 0.00 0.00 0.00 53 1010.0
20260904104015 72 232 1.7 2.6 0.00 0.00 0.00 54 1010.0
20260904103022 71 245 0.9 0.9 0.00 0.00 0.00 55 1010.0
20260904102022 71 260 0.9 1.7 0.00 0.00 0.00 57 1010.0
20260904101022 71 230 2.6 5.2 0.00 0.00 0.00 57 1010.0
20260904100021 70 238 0.9 2.6 0.00 0.00 0.00 60 1010.0
20260904095022 70 217 1.7 3.5 0.00 0.00 0.00 60 1010.0
20260904094023 69 245 0.9 1.7 0.00 0.00 0.00 61 1010.0
20260904093023 70 225 1.7 2.6 0.00 0.00 0.00 61 1010.0
20260904092023 69 209 0.9 1.7 0.00 0.00 0.00 62 1010.0
20260904091020 69 312 1.7 5.2 0.00 0.00 0.00 63 1010.0
20260904090022 68 218 1.7 2.6 0.00 0.00 0.00 63 1010.0
20260904085015 68 228 1.7 1.7 0.00 0.00 0.00 64 1010.0
20260904084022 68 220 0.9 0.9 0.00 0.00 0.00 65 1010.0
20260904083022 68 220 1.7 2.6 0.00 0.00 0.00 66 1010.0
20260904082025 68 226 0.9 1.7 0.00 0.00 0.00 67 1010.0
20260904081022 68 210 0.9 1.7 0.00 0.00 0.00 67 1010.0
20260904080024 67 209 0.9 0.9 0.00 0.00 0.00 67 1010.0
20260904075022 67 239 0.9 1.7 0.00 0.00 0.00 67 1010.0
20260904074016 67 255 1.7 2.6 0.00 0.00 0.00 68 1010.0
20260904073022 67 219 0.9 0.9 0.00 0.00 0.00 68 1010.0
20260904072022 67 222 0.9 2.6 0.00 0.00 0.00 68 1010.0
20260904071102 67 208 0.9 1.7 0.00 0.00 0.00 69 1010.0
20260904070047 66 223 1.7 2.6 0.00 0.00 0.00 69 1010.0
20260904065023 66 217 0.9 1.7 0.00 0.00 0.00 70 1010.0
20260904064022 66 208 0.9 1.7 0.00 0.00 0.00 70 1010.0
20260904063022 65 222 0.9 2.6 0.00 0.00 0.00 71 1010.0
20260904062022 65 219 0.9 0.9 0.00 0.00 0.00 71 1010.0
20260904061022 64 228 1.7 2.6 0.00 0.00 0.00 72 1010.0
20260904060024 64 234 0.9 1.7 0.00 0.00 0.00 72 1010.0
20260904055029 64 221 1.7 2.6 0.00 0.00 0.00 71 1010.0
20260904054024 64 218 1.7 2.6 0.00 0.00 0.00 71 1010.0
20260904053025 64 206 1.7 2.6 0.00 0.00 0.00 70 1010.0
20260904052025 64 230 0.9 1.7 0.00 0.00 0.00 70 1010.0
20260904051017 64 221 1.7 2.6 0.00 0.00 0.00 68 1010.0
20260904050022 64 214 0.9 0.9 0.00 0.00 0.00 68 1010.0
20260904045022 64 203 0.9 1.7 0.00 0.00 0.00 67 1010.0
20260904044015 64 217 1.7 1.7 0.00 0.00 0.00 68 1010.0
20260904043024 64 211 1.7 1.7 0.00 0.00 0.00 67 1010.0
20260904042022 64 224 0.9 1.7 0.00 0.00 0.00 67 1011.0
20260904041026 64 207 0.9 1.7 0.00 0.00 0.00 66 1011.0
20260904040020 64 203 0.9 1.7 0.00 0.00 0.00 66 1011.0
20260904035023 64 207 0.9 2.6 0.00 0.00 0.00 65 1010.0
20260904034016 64 202 0.9 1.7 0.00 0.00 0.00 65 1010.7
20260904033023 64 238 0.9 1.7 0.00 0.00 0.00 64 1011.0
20260904032022 64 227 0.9 1.7 0.00 0.00 0.00 64 1011.0
20260904031023 64 218 0.9 0.9 0.00 0.00 0.00 63 1011.0
20260904030022 64 210 0.9 0.9 0.00 0.00 0.00 62 1011.0
20260904025022 64 203 0.0 0.9 0.00 0.00 0.00 62 1011.0
20260904024018 64 214 0.9 0.9 0.00 0.00 0.00 62 1011.0
20260904023046 64 203 0.9 1.7 0.00 0.00 0.00 62 1011.0
20260904022042 64 225 0.0 0.9 0.00 0.00 0.00 61 1011.0
20260904021022 64 203 0.9 0.9 0.00 0.00 0.00 61 1011.0
20260904020023 64 230 0.9 0.9 0.00 0.00 0.00 62 1011.0
20260904015022 64 191 0.9 1.7 0.00 0.00 0.00 62 1011.0
20260904014022 64 225 0.9 1.7 0.00 0.00 0.00 62 1011.0
20260904013016 64 225 0.9 0.9 0.00 0.00 0.00 62 1011.0
20260904012022 64 231 0.0 0.9 0.00 0.00 0.00 63 1011.0
20260904011042 64 214 0.9 0.9 0.00 0.00 0.00 63 1011.0
20260904010050 64 203 0.0 0.9 0.00 0.00 0.00 63 1011.0
20260904005016 64 203 0.9 1.7 0.00 0.00 0.00 62 1011.0
20260904004022 64 248 0.0 0.9 0.00 0.00 0.00 63 1011.0